Wind_Speed
66 67 69 70 72 74 76 78 80 82 84 87 90 93 96 99 102 105 106 107 109 112 116 120 124 127 128 128 129 129 129 128 127 127 127 129 132 135 138 140 140 140 141 143 145 145 145 145 145 145 146 147 145 143 141 139 138 139 140 140 139 138 138
63 64 66 67 69 71 72 74 75 77 80 82 85 87 90 92 95 98 102 104 106 109 111 115 118 123 126 127 127 127 128 128 128 127 127 127 128 130 133 136 138 139 140 142 144 144 145 145 145 145 146 147 147 144 141 139 139 140 140 140 140 139 139
60 62 63 64 66 68 69 71 72 74 76 79 81 83 85 87 89 92 95 99 102 105 108 110 113 117 122 125 127 127 127 128 128 127 126 126 127 127 129 132 135 136 138 140 142 143 144 145 146 146 146 147 148 146 142 140 140 140 140 140 140 140 139
57 58 60 62 64 65 67 68 70 71 73 75 77 79 81 82 84 86 89 92 96 99 103 106 108 112 116 121 124 126 126 127 128 127 126 125 125 126 127 129 131 133 134 136 138 141 142 144 144 145 146 147 148 146 143 140 139 139 139 139 139 139 139
54 55 57 59 60 62 64 66 67 68 70 72 74 76 77 79 80 82 83 86 89 93 96 99 103 107 111 116 120 123 124 126 127 128 127 126 125 124 125 127 129 130 131 133 134 136 139 140 141 143 144 145 147 145 142 139 138 138 139 139 139 139 138
51 53 54 56 57 59 61 62 64 66 67 69 70 72 74 75 77 78 79 81 83 86 89 92 97 101 106 110 114 118 121 124 125 127 127 126 125 124 124 126 127 128 129 130 131 133 134 136 137 138 140 142 144 144 142 139 138 138 138 138 139 139 138
48 50 52 53 54 55 57 59 61 63 64 66 67 69 70 72 73 75 76 78 80 81 84 86 90 95 99 103 108 113 117 121 123 124 125 126 125 124 124 124 125 126 128 128 129 130 131 132 133 134 135 137 139 140 139 137 136 135 135 136 137 138 139
45 47 48 50 51 52 54 56 58 59 60 62 64 66 68 69 70 71 73 75 77 78 80 82 85 88 92 96 101 106 111 116 120 122 123 124 124 124 123 123 123 124 125 126 127 128 129 129 130 130 131 132 134 136 135 134 133 134 134 135 136 138 139
42 44 45 46 47 49 52 54 55 56 57 58 60 62 64 66 68 69 71 72 74 76 77 79 81 83 87 90 94 99 104 109 114 117 120 121 123 123 123 122 122 122 123 124 124 125 126 127 127 128 128 130 131 133 134 134 133 133 134 134 136 137 137
40 41 43 44 46 47 49 51 52 53 53 55 57 59 62 64 66 67 68 70 71 73 75 76 78 80 82 86 89 93 97 101 106 110 114 117 120 121 121 121 120 119 120 121 121 122 123 124 125 126 127 128 130 131 133 133 132 132 133 133 134 135 134
38 39 41 42 44 45 47 48 49 49 50 52 54 57 60 62 63 65 66 67 69 70 72 73 75 77 79 81 84 88 91 95 98 102 107 111 114 117 119 119 118 118 117 118 118 119 120 121 122 124 125 127 129 130 131 131 131 130 131 132 132 133 132
36 38 39 40 41 43 44 46 46 47 48 49 52 54 57 60 61 63 64 65 67 68 69 71 73 74 76 78 81 84 87 90 93 96 100 104 107 111 114 115 116 116 116 116 116 117 118 119 120 122 124 125 127 128 129 128 128 128 128 129 129 130 129
34 36 37 38 39 40 42 43 44 45 46 47 49 51 54 56 58 60 62 64 65 66 67 68 70 72 74 75 77 80 83 86 89 92 95 98 101 104 107 110 112 113 114 115 114 114 115 117 119 121 122 123 125 126 126 126 125 125 126 126 127 127 127
32 33 35 36 37 38 39 40 42 43 44 45 47 48 50 52 54 56 59 61 62 63 64 65 67 69 71 73 75 77 79 82 84 87 90 92 95 98 101 103 106 108 110 111 111 111 112 114 117 119 121 122 122 123 123 123 123 123 123 123 123 123 123
30 31 32 33 34 35 36 37 39 41 42 43 44 46 47 50 52 54 55 57 59 60 62 63 64 66 69 71 73 74 76 78 80 82 85 87 90 92 95 98 100 102 104 106 107 107 109 110 113 115 118 119 119 119 119 120 120 120 119 119 118 118 118
29 29 30 31 31 32 33 35 37 39 40 41 42 44 46 49 50 51 52 54 56 58 60 61 62 64 66 68 70 71 73 74 76 78 80 82 85 87 89 92 94 96 98 99 100 102 103 105 107 108 111 113 115 116 116 116 116 115 115 115 115 115 114
28 29 29 29 30 31 32 33 35 36 38 39 41 43 45 47 49 50 51 53 54 55 57 58 59 61 63 64 66 68 69 71 72 74 76 78 80 83 84 87 89 91 92 93 95 97 99 100 101 103 104 107 109 111 112 113 113 112 112 113 113 113 112
27 28 29 29 30 30 31 32 33 34 36 38 40 42 44 46 48 49 50 51 52 52 53 54 56 58 60 62 64 65 66 67 69 71 73 75 77 78 80 83 85 86 88 89 90 92 94 95 97 98 100 102 103 104 106 108 109 109 109 110 109 109 108
26 27 28 28 29 30 31 31 32 33 34 36 38 40 42 45 47 47 47 48 49 50 51 52 53 55 57 59 61 62 62 64 65 67 69 71 73 74 76 79 81 82 83 84 85 86 88 90 91 93 95 97 99 100 101 102 103 105 106 106 106 105 104
25 26 27 27 28 29 29 30 31 31 32 34 36 38 40 42 43 44 45 45 46 47 49 50 51 52 54 56 57 58 58 60 61 63 66 67 68 71 73 75 76 76 77 78 79 80 83 84 85 87 89 91 92 94 96 97 98 100 101 102 102 102 100
24 25 26 26 27 28 29 30 30 30 30 31 33 34 36 38 39 41 42 43 43 44 45 46 47 49 51 53 54 55 56 57 58 60 62 64 65 68 70 70 70 71 72 72 73 75 77 78 80 81 83 85 87 90 92 93 94 95 95 96 97 97 96
22 23 24 24 25 25 26 27 28 29 29 29 30 31 32 34 35 37 38 39 40 41 42 43 45 46 47 49 51 52 54 55 55 57 58 60 62 64 64 64 65 67 67 67 69 71 73 74 75 77 79 81 83 86 87 88 89 89 89 90 91 92 92
20 21 21 22 22 23 23 24 25 26 26 27 27 28 29 31 32 34 35 37 38 39 40 41 42 43 44 45 47 49 50 52 53 54 55 58 59 59 59 61 63 63 63 64 65 67 68 69 71 73 75 78 80 81 82 83 83 84 85 86 87 89 90
18 19 20 20 20 20 21 21 22 22 23 24 25 26 27 29 30 32 33 34 35 37 38 38 39 40 41 42 44 45 46 47 48 50 52 54 55 56 57 59 60 59 59 60 60 61 63 65 66 68 71 73 74 74 75 77 78 80 81 83 85 87 88
16 17 18 18 19 19 19 19 19 20 21 22 23 24 25 26 28 29 30 31 32 34 35 36 37 38 39 40 41 42 43 44 45 46 47 49 50 52 54 55 55 55 55 55 55 56 58 60 62 64 65 66 66 67 68 71 73 75 78 80 82 82 83
14 15 16 17 18 18 18 18 18 19 20 21 22 23 23 24 25 26 27 28 30 31 32 33 34 35 36 38 39 40 40 41 42 43 43 44 45 46 48 49 50 51 51 52 52 53 54 56 57 58 57 57 58 60 63 66 69 72 74 75 76 77 77
12 13 14 15 16 16 17 18 18 18 18 19 20 20 21 22 22 23 25 26 27 29 30 31 32 33 34 35 36 37 38 39 39 40 40 40 41 41 42 43 44 46 47 47 48 49 50 51 52 52 52 53 55 58 61 63 65 67 68 69 69 70 70
10 11 11 12 13 14 15 16 16 16 17 17 18 18 19 20 21 22 23 24 25 26 28 29 30 31 32 33 34 35 35 36 36 37 37 37 38 38 39 40 41 42 43 43 43 44 45 46 48 49 50 52 54 56 58 60 61 62 63 63 63 62 63
9 9 9 10 11 11 12 13 13 14 14 15 16 16 17 18 19 20 21 22 23 24 25 26 27 29 30 30 31 32 32 33 33 34 34 35 35 36 37 37 38 40 40 41 41 41 41 42 44 47 48 50 51 52 54 55 56 58 58 57 56 56 59
10 9 9 9 9 9 10 10 11 12 13 13 14 15 15 16 16 17 18 19 20 21 22 24 25 26 27 28 29 29 29 30 31 31 32 33 33 34 35 36 37 38 39 39 39 39 39 40 41 42 44 45 46 48 49 50 51 52 51 51 52 55 57
10 10 9 9 8 8 9 9 10 10 11 11 12 13 14 14 15 15 16 16 18 19 20 21 23 24 25 25 26 26 27 27 28 29 30 31 32 32 33 34 36 37 38 38 39 38 39 39 39 40 40 41 42 44 45 45 46 47 48 50 52 54 56
10 9 9 9 8 8 8 8 9 9 10 10 11 12 12 13 13 14 15 16 17 18 19 20 21 22 22 23 24 24 25 25 26 27 27 28 29 30 31 32 33 35 36 37 38 39 39 39 39 40 40 41 41 42 43 44 45 46 48 50 51 53 55
9 9 9 8 8 8 7 7 8 8 9 9 10 11 11 12 12 13 14 15 16 17 18 19 20 20 21 22 22 23 23 23 24 24 25 26 27 27 28 29 31 32 33 35 36 38 38 39 40 40 41 41 42 43 44 45 46 47 48 50 51 53 54
8 8 8 8 8 8 7 7 7 7 7 8 9 9 10 11 11 12 12 13 14 15 16 17 19 19 20 21 22 22 23 23 23 23 23 24 24 25 25 26 27 28 30 31 33 34 36 37 38 39 40 41 42 43 44 45 45 46 47 48 49 50 50
8 8 7 7 7 7 7 6 6 6 6 6 7 7 8 9 9 10 10 11 12 12 13 15 16 17 18 19 20 21 22 22 22 23 23 23 23 23 24 24 25 26 27 27 29 30 31 32 34 35 36 38 39 40 41 41 42 43 44 45 46 47 48
9 8 8 7 7 6 6 6 5 5 5 5 5 5 5 6 7 8 8 9 9 10 10 11 12 14 15 16 17 19 19 20 21 21 21 22 22 22 23 23 24 24 25 26 27 28 29 30 31 32 33 35 36 37 38 39 41 42 43 44 45 46 47
Wind_Direction
247 246 246 245 245 244 244 243 243 243 242 242 242 241 241 240 241 242 242 241 239 237 236 237 238 240 242 242 242 243 243 243 242 241 241 240 239 240 241 242 243 243 243 244 244 245 246 247 247 248 249 250 250 250 250 250 251 251 252 252 252 252 252
248 247 247 246 245 245 244 243 243 243 243 243 243 242 242 241 240 241 241 241 240 239 237 236 236 237 240 241 242 242 243 243 243 242 241 241 240 239 240 240 242 242 243 243 244 245 246 246 247 248 248 250 250 251 251 251 251 251 252 252 252 253 253
249 248 247 247 246 245 245 244 243 243 242 242 242 243 242 242 241 240 240 240 240 239 238 237 236 236 237 239 241 242 242 243 243 243 242 241 240 240 240 240 240 241 242 242 243 244 245 246 247 247 248 249 250 250 251 251 251 251 252 252 253 253 253
250 248 247 247 246 246 245 244 243 243 243 242 242 242 242 242 242 241 240 240 240 239 239 238 237 236 236 237 238 240 241 242 243 244 243 242 241 241 240 240 240 241 241 241 242 243 244 245 245 246 247 249 250 250 250 251 251 251 252 253 253 254 254
251 250 248 247 246 245 245 244 243 243 242 242 243 242 242 242 242 241 241 240 240 239 239 238 238 237 236 236 237 238 239 240 241 243 244 244 243 242 241 241 241 241 241 241 242 242 243 244 245 245 246 248 249 250 251 251 251 252 252 253 254 254 255
252 252 250 249 247 246 245 244 244 243 242 242 242 243 243 242 242 242 241 241 240 239 239 238 238 237 237 236 236 237 238 239 240 241 242 244 244 243 242 241 241 241 241 242 242 242 243 243 244 245 246 247 248 250 250 251 251 252 252 253 254 254 255
252 252 251 250 249 248 246 245 244 243 242 242 242 242 243 242 242 241 241 241 241 240 239 238 237 237 237 237 236 236 237 238 239 240 241 242 243 243 242 242 241 241 241 241 242 242 243 244 244 245 245 246 247 249 250 250 251 251 252 253 253 254 255
253 253 252 251 251 250 248 246 245 243 243 242 242 243 242 242 242 241 241 241 241 240 240 239 238 237 237 237 236 236 236 237 238 239 240 241 242 243 243 242 242 241 242 242 242 242 243 244 244 245 245 246 247 248 250 250 251 251 252 252 253 253 254
254 253 253 252 251 250 249 247 246 244 243 243 243 243 243 242 242 241 241 240 240 240 240 239 238 237 237 236 236 236 236 236 237 238 239 240 241 242 243 243 242 242 242 242 242 242 243 244 244 245 245 246 247 247 248 249 249 250 250 251 251 252 253
254 253 252 252 251 250 248 247 246 244 244 244 244 243 243 243 242 242 241 241 240 240 240 239 239 238 237 237 236 236 236 236 236 237 238 239 240 241 242 243 243 242 242 242 243 243 243 243 244 244 245 245 246 246 247 248 248 249 249 250 251 251 252
254 252 251 250 250 249 247 246 244 244 243 244 244 244 244 243 242 242 242 242 241 241 241 240 240 239 239 238 237 237 236 236 236 236 237 238 239 241 242 243 243 243 243 242 242 243 243 244 244 244 244 245 246 246 247 248 248 248 249 249 250 251 252
254 252 250 249 249 249 247 245 243 242 241 242 243 244 244 243 242 242 242 242 242 242 241 241 240 240 239 238 238 237 237 236 236 236 236 237 238 239 240 242 243 243 243 243 242 242 243 244 244 244 244 245 245 246 247 248 248 249 249 249 250 251 252
256 254 253 251 250 248 247 246 244 241 240 240 241 243 244 244 244 242 242 242 242 242 242 242 241 241 240 240 239 238 238 237 237 236 236 236 237 238 239 240 241 242 243 243 243 242 242 243 244 245 245 245 245 246 247 248 248 249 250 250 250 251 251
258 257 255 253 251 250 248 246 245 243 241 239 240 241 243 244 244 243 243 242 242 243 243 243 242 242 242 241 241 240 239 239 238 238 238 237 237 237 238 239 240 241 242 243 243 243 242 242 242 243 245 246 246 246 247 248 249 250 250 251 251 251 252
259 258 257 255 254 252 250 248 246 245 243 241 240 240 241 241 242 243 243 242 242 242 242 242 242 242 242 241 241 241 240 240 239 239 239 239 239 238 238 239 239 240 241 241 242 243 243 242 242 242 243 245 246 247 248 248 249 250 251 252 252 253 253
259 258 257 256 254 253 251 249 247 246 245 243 242 241 241 241 241 241 241 242 241 241 240 240 241 241 241 241 241 241 241 241 241 240 240 240 240 240 240 240 240 240 240 241 241 242 243 243 243 243 243 244 246 247 248 249 250 250 251 252 253 253 254
261 259 258 256 254 252 250 248 246 245 244 243 242 241 241 242 241 241 240 240 241 241 241 241 241 241 242 242 242 242 242 242 241 241 241 241 241 241 241 240 240 240 240 240 240 241 241 242 243 243 244 244 245 246 247 249 250 251 251 252 252 253 254
262 261 259 257 255 253 250 248 246 244 243 241 241 240 241 242 242 241 241 240 241 241 242 242 242 242 242 242 242 242 242 242 242 241 241 241 241 241 241 241 241 241 241 241 240 240 240 241 241 241 242 243 244 244 245 246 248 249 251 251 252 252 253
265 264 263 262 261 259 256 254 250 247 245 243 241 241 241 242 243 244 243 242 242 242 242 242 242 242 243 243 243 243 243 243 242 242 242 242 242 242 242 242 242 241 241 241 241 241 241 241 241 241 241 242 243 243 244 244 245 247 248 250 250 251 251
269 268 267 267 266 265 264 261 257 253 249 246 244 242 242 243 244 245 246 245 244 243 243 243 243 243 244 245 245 245 245 244 244 244 244 244 244 243 243 243 243 243 243 243 243 243 243 243 243 243 243 243 243 244 244 244 245 245 246 247 249 249 250
269 268 267 266 266 265 265 264 262 260 256 252 250 248 246 246 246 246 247 247 247 246 245 245 244 243 244 245 245 245 245 245 244 244 245 245 245 244 245 245 245 245 245 245 244 244 244 244 244 244 244 244 244 244 244 245 245 246 246 247 248 249 250
267 266 265 264 263 262 262 262 262 262 261 258 256 253 251 249 248 247 247 246 247 246 246 245 245 244 243 244 244 245 245 245 245 245 245 246 246 246 246 247 247 246 246 245 244 244 244 244 243 243 243 243 243 244 244 245 246 247 248 248 249 250 250
267 267 266 264 262 260 258 258 257 258 257 257 255 253 251 250 248 247 246 245 244 244 244 244 244 244 244 243 243 244 244 244 244 244 244 245 246 247 247 247 247 246 246 245 244 244 244 244 243 243 243 243 243 244 245 246 247 248 249 249 250 250 250
270 268 268 267 265 262 259 257 256 254 253 253 251 249 248 247 246 245 244 244 243 243 243 243 244 244 244 244 244 244 243 243 243 242 242 243 245 246 246 247 247 247 246 246 245 245 245 245 244 243 243 244 244 245 246 246 247 248 248 249 249 249 250
271 269 268 267 266 264 262 259 257 255 253 252 250 249 247 246 245 245 244 244 243 243 242 242 242 243 243 243 243 243 243 243 242 242 241 241 242 243 244 246 247 248 248 248 247 246 245 245 245 245 245 245 246 246 246 246 246 247 247 247 247 248 249
269 266 264 262 261 260 259 258 255 253 251 249 249 249 248 248 247 246 246 245 244 243 243 242 242 242 242 242 242 242 242 242 242 242 241 241 241 242 243 244 245 246 247 247 246 245 245 245 246 246 247 247 247 246 245 244 244 245 245 246 246 247 248
268 264 261 259 257 256 255 255 254 252 250 248 248 248 248 247 246 245 244 244 244 244 244 243 243 243 242 242 242 242 242 242 242 242 242 242 241 241 241 242 243 243 244 244 243 243 244 244 245 245 245 245 244 243 243 242 242 243 244 245 246 247 248
277 271 264 260 258 255 253 253 253 253 252 249 248 246 245 244 242 241 240 241 241 242 243 243 244 244 244 244 244 243 243 243 242 242 242 242 241 241 240 240 240 241 242 242 242 242 241 241 241 241 240 240 240 240 241 241 242 243 244 245 247 248 249
298 289 279 272 267 263 260 259 257 256 255 253 250 247 245 243 241 240 239 238 238 239 240 241 242 243 244 244 245 245 245 244 244 244 244 243 242 241 240 239 238 238 239 240 240 239 238 238 238 238 238 239 239 240 241 241 242 243 245 246 247 247 247
317 309 301 295 289 284 279 274 268 263 259 256 253 249 246 242 240 239 238 238 237 237 237 237 239 240 241 242 243 244 244 245 245 245 245 244 244 242 241 240 239 238 238 238 238 238 237 237 237 237 238 239 240 240 241 242 243 244 245 246 245 244 245
328 322 319 316 312 307 300 294 285 276 269 263 256 251 246 242 238 236 235 234 234 234 233 234 234 235 237 239 240 241 242 243 244 245 245 245 245 244 243 241 240 238 237 236 235 235 235 235 235 236 236 237 238 239 240 241 242 242 242 242 242 242 244
339 335 332 332 330 324 317 312 304 296 289 281 272 264 256 249 243 238 235 232 231 230 229 230 230 230 232 233 235 237 239 240 241 242 243 243 243 243 243 242 241 239 238 236 235 234 234 233 233 233 234 234 235 236 237 238 239 239 240 240 241 242 243
351 348 345 343 341 336 330 324 316 308 302 295 286 278 270 262 255 248 242 237 234 231 229 228 227 227 227 228 229 231 233 235 236 238 239 240 241 241 242 242 241 240 239 238 237 235 234 234 233 233 233 233 234 235 236 237 238 239 240 241 242 243 244
359 357 354 353 350 344 338 332 325 317 312 305 297 290 282 275 267 260 254 248 243 239 236 233 231 229 228 227 228 228 229 229 231 232 233 235 236 237 238 239 239 240 239 239 239 238 237 236 236 235 235 236 236 237 238 239 240 242 243 245 246 248 249
5 5 5 3 357 351 345 339 331 326 319 312 305 297 289 283 275 269 262 257 251 247 242 239 236 233 231 230 229 229 229 229 229 230 230 231 231 232 233 233 234 234 235 236 237 237 237 237 238 238 238 239 239 240 241 242 244 245 246 247 248 249 250
9 12 14 15 10 4 358 349 341 335 325 315 308 299 291 284 277 272 267 261 256 252 246 242 238 235 233 232 231 230 229 229 230 230 230 231 231 231 231 231 231 231 231 231 231 232 232 233 233 234 235 236 237 238 239 240 242 243 244 246 247 248 250
Height
9958 9960 9963 9966 9969 9971 9974 9978 9982 9986 9990 9994 9997 10000 10005 10010 10013 10018 10026 10033 10040 10046 10052 10057 10061 10065 10070 10076 10082 10089 10095 10102 10112 10121 10130 10140 10148 10155 10160 10165 10171 10183 10193 10193 10194 10198 10201 10205 10210 10214 10215 10215 10218 10226 10234 10245 10253 10254 10254 10258 10264 10269 10273
9949 9951 9954 9956 9959 9961 9964 9968 9972 9975 9979 9982 9985 9988 9993 9997 10002 10007 10012 10016 10023 10030 10036 10042 10048 10053 10056 10060 10066 10073 10079 10085 10092 10102 10111 10121 10131 10139 10146 10151 10156 10166 10175 10177 10180 10184 10187 10191 10194 10199 10203 10201 10203 10210 10218 10227 10235 10237 10238 10242 10247 10251 10255
9940 9942 9944 9946 9949 9951 9955 9958 9961 9964 9967 9970 9973 9977 9980 9985 9990 9995 9998 10002 10008 10014 10020 10026 10034 10040 10044 10047 10051 10058 10065 10070 10075 10083 10092 10102 10113 10122 10130 10136 10141 10149 10158 10162 10165 10169 10173 10177 10181 10185 10188 10187 10188 10193 10201 10209 10217 10221 10223 10227 10231 10235 10238
9931 9933 9935 9937 9939 9942 9944 9948 9951 9954 9957 9959 9962 9966 9969 9973 9978 9982 9986 9990 9994 9999 10006 10013 10021 10027 10032 10034 10038 10045 10052 10057 10062 10066 10074 10084 10095 10105 10113 10120 10126 10133 10141 10146 10151 10154 10158 10163 10167 10171 10173 10172 10173 10177 10185 10194 10201 10206 10209 10213 10217 10219 10222
9922 9924 9926 9928 9930 9933 9935 9938 9941 9944 9947 9949 9952 9955 9959 9963 9967 9971 9975 9979 9982 9986 9993 10000 10007 10013 10017 10022 10027 10032 10038 10044 10048 10052 10058 10067 10078 10088 10097 10104 10110 10117 10123 10130 10136 10141 10144 10148 10152 10157 10160 10160 10160 10164 10171 10179 10187 10193 10196 10199 10201 10203 10207
9914 9915 9917 9919 9922 9924 9927 9930 9932 9935 9937 9940 9943 9946 9949 9953 9957 9961 9964 9968 9971 9975 9981 9988 9994 9998 10003 10009 10016 10022 10026 10030 10034 10039 10044 10051 10060 10071 10080 10086 10094 10101 10107 10114 10122 10126 10129 10133 10138 10144 10148 10149 10149 10151 10157 10165 10172 10178 10181 10185 10187 10189 10191
9906 9907 9909 9911 9913 9916 9919 9921 9923 9926 9928 9931 9934 9936 9939 9943 9947 9951 9954 9957 9960 9964 9969 9975 9980 9984 9990 9997 10003 10009 10013 10017 10021 10027 10032 10037 10044 10052 10060 10068 10077 10084 10091 10099 10106 10111 10114 10119 10125 10129 10134 10137 10137 10138 10144 10151 10158 10164 10168 10172 10174 10175 10176
9898 9899 9901 9903 9906 9909 9911 9913 9915 9917 9920 9923 9926 9928 9930 9933 9937 9940 9943 9946 9950 9954 9958 9963 9967 9972 9977 9983 9989 9995 9999 10004 10009 10014 10020 10025 10030 10035 10042 10051 10060 10068 10075 10082 10090 10097 10101 10105 10110 10116 10121 10124 10126 10129 10135 10141 10146 10151 10154 10156 10158 10159 10158
9891 9893 9894 9896 9899 9901 9903 9905 9906 9909 9912 9915 9918 9920 9922 9924 9927 9930 9933 9936 9939 9943 9947 9951 9955 9960 9965 9970 9975 9980 9986 9991 9996 10001 10007 10012 10016 10021 10026 10034 10043 10052 10060 10067 10075 10082 10087 10091 10097 10102 10107 10111 10115 10119 10122 10124 10127 10132 10136 10138 10140 10140 10141
9885 9887 9887 9889 9891 9893 9895 9897 9899 9902 9904 9907 9909 9911 9913 9916 9918 9920 9923 9926 9929 9932 9936 9940 9944 9949 9953 9958 9962 9967 9973 9978 9984 9989 9994 9998 10003 10007 10012 10019 10027 10037 10046 10052 10059 10067 10073 10078 10083 10088 10092 10097 10100 10101 10102 10106 10111 10116 10120 10122 10123 10125 10128
9879 9880 9881 9882 9883 9886 9888 9890 9892 9895 9897 9899 9901 9902 9904 9907 9909 9912 9915 9917 9920 9923 9926 9931 9935 9939 9943 9947 9951 9955 9960 9965 9971 9977 9982 9986 9990 9996 10001 10006 10013 10022 10031 10038 10046 10052 10058 10064 10070 10074 10077 10080 10082 10084 10087 10092 10096 10100 10104 10107 10110 10113 10117
9872 9873 9874 9875 9877 9879 9881 9883 9886 9888 9890 9892 9893 9894 9896 9898 9902 9904 9906 9909 9911 9914 9917 9921 9925 9929 9933 9937 9940 9944 9948 9953 9958 9964 9969 9973 9978 9983 9988 9994 10001 10008 10015 10023 10031 10038 10044 10050 10054 10057 10061 10064 10067 10069 10072 10076 10080 10084 10090 10095 10097 10100 10103
9866 9867 9868 9869 9871 9872 9874 9877 9879 9881 9883 9885 9886 9887 9889 9891 9894 9897 9898 9901 9903 9905 9909 9913 9916 9920 9923 9927 9930 9934 9938 9942 9946 9951 9956 9961 9966 9971 9977 9982 9988 9994 10000 10007 10015 10023 10032 10038 10039 10041 10045 10049 10051 10053 10057 10062 10067 10071 10075 10079 10082 10084 10087
9861 9861 9862 9863 9865 9866 9869 9871 9873 9874 9876 9878 9880 9881 9883 9884 9886 9888 9890 9893 9896 9899 9902 9905 9908 9911 9914 9918 9922 9925 9928 9932 9937 9941 9946 9951 9956 9961 9965 9970 9976 9981 9986 9993 10000 10008 10018 10024 10025 10026 10028 10030 10034 10040 10045 10049 10053 10057 10059 10063 10066 10069 10073
9855 9856 9857 9858 9859 9861 9863 9865 9867 9868 9870 9872 9873 9875 9876 9877 9878 9880 9882 9885 9888 9891 9893 9896 9899 9902 9905 9908 9912 9915 9919 9923 9927 9932 9936 9941 9946 9950 9954 9959 9964 9969 9974 9980 9987 9995 10002 10006 10010 10014 10016 10017 10022 10027 10032 10035 10039 10042 10046 10050 10053 10056 10061
9849 9851 9852 9853 9854 9856 9857 9859 9860 9862 9864 9866 9867 9869 9869 9870 9871 9873 9876 9877 9879 9882 9884 9887 9891 9893 9896 9900 9903 9907 9911 9915 9919 9924 9928 9931 9935 9939 9944 9949 9953 9958 9964 9971 9977 9983 9988 9991 9996 10002 10007 10010 10012 10015 10018 10022 10026 10030 10035 10038 10041 10043 10048
9844 9845 9847 9848 9849 9850 9851 9852 9854 9856 9858 9859 9861 9862 9862 9863 9864 9866 9869 9870 9872 9875 9877 9880 9884 9886 9889 9892 9895 9899 9903 9907 9911 9915 9919 9922 9925 9929 9934 9938 9942 9946 9953 9959 9964 9969 9974 9978 9984 9990 9994 9997 10000 10004 10008 10010 10013 10018 10022 10024 10027 10030 10034
9839 9840 9841 9842 9843 9844 9845 9846 9848 9850 9851 9852 9854 9855 9856 9856 9857 9859 9862 9864 9867 9869 9872 9874 9877 9879 9882 9884 9887 9891 9895 9899 9903 9906 9909 9913 9916 9920 9924 9926 9929 9934 9940 9945 9950 9956 9960 9965 9970 9975 9979 9982 9986 9991 9996 9999 10002 10005 10007 10009 10013 10018 10022
9836 9836 9836 9837 9838 9839 9840 9842 9843 9844 9845 9847 9848 9849 9850 9850 9851 9853 9856 9859 9862 9864 9866 9868 9870 9872 9874 9876 9879 9883 9888 9891 9895 9898 9900 9903 9907 9911 9914 9915 9918 9924 9929 9934 9940 9945 9948 9952 9957 9962 9966 9969 9973 9978 9983 9987 9990 9993 9995 9996 10000 10003 10007
9832 9832 9832 9833 9834 9834 9835 9836 9837 9839 9840 9842 9843 9844 9845 9846 9847 9849 9851 9854 9856 9858 9860 9862 9864 9867 9868 9870 9873 9876 9880 9883 9887 9890 9891 9895 9899 9902 9902 9904 9910 9916 9921 9926 9932 9936 9939 9943 9948 9953 9957 9961 9965 9967 9970 9974 9977 9980 9983 9985 9988 9991 9995
9829 9829 9829 9829 9830 9830 9830 9831 9832 9833 9835 9837 9838 9840 9841 9843 9844 9845 9847 9849 9850 9853 9855 9857 9859 9861 9863 9864 9867 9870 9872 9876 9879 9882 9883 9886 9890 9891 9892 9897 9904 9909 9913 9919 9925 9928 9930 9934 9939 9943 9947 9950 9953 9955 9957 9960 9963 9967 9971 9975 9978 9981 9984
9826 9826 9826 9826 9827 9827 9827 9828 9828 9829 9830 9832 9834 9835 9836 9838 9839 9841 9842 9844 9846 9847 9849 9851 9853 9855 9857 9859 9861 9863 9866 9869 9872 9875 9877 9879 9880 9882 9887 9892 9896 9900 9905 9910 9914 9917 9920 9924 9929 9932 9935 9937 9939 9941 9945 9949 9953 9957 9961 9964 9966 9969 9972
9823 9823 9823 9823 9824 9824 9824 9825 9825 9826 9827 9828 9829 9830 9831 9833 9834 9835 9837 9838 9840 9841 9843 9845 9847 9849 9852 9854 9856 9858 9860 9863 9865 9869 9871 9871 9873 9876 9881 9883 9886 9890 9895 9899 9903 9907 9910 9914 9919 9921 9923 9925 9928 9932 9937 9941 9944 9948 9951 9953 9956 9958 9960
9821 9820 9820 9820 9820 9821 9821 9822 9823 9823 9824 9824 9825 9826 9827 9828 9829 9830 9831 9833 9835 9837 9839 9840 9842 9844 9846 9848 9850 9852 9855 9857 9860 9862 9864 9866 9868 9871 9873 9874 9877 9881 9886 9890 9895 9899 9901 9904 9908 9911 9913 9916 9920 9926 9930 9934 9937 9940 9942 9944 9945 9946 9948
9819 9819 9818 9818 9818 9818 9819 9819 9820 9820 9821 9821 9821 9822 9822 9823 9824 9826 9827 9829 9831 9832 9834 9836 9838 9839 9841 9843 9845 9847 9849 9851 9854 9856 9858 9861 9863 9865 9866 9868 9871 9875 9878 9883 9888 9891 9893 9896 9898 9901 9905 9909 9914 9919 9923 9925 9928 9930 9931 9932 9934 9936 9939
9818 9817 9817 9816 9816 9816 9816 9816 9817 9817 9817 9818 9818 9818 9819 9820 9821 9823 9824 9825 9827 9828 9829 9831 9833 9834 9836 9838 9839 9841 9843 9846 9848 9850 9852 9855 9857 9859 9862 9864 9867 9869 9872 9876 9879 9882 9885 9887 9890 9894 9898 9903 9908 9911 9913 9915 9916 9917 9919 9922 9925 9928 9930
9816 9816 9815 9815 9814 9814 9814 9814 9814 9814 9814 9815 9815 9816 9817 9818 9819 9820 9821 9821 9822 9824 9825 9826 9828 9829 9831 9832 9834 9836 9838 9840 9843 9845 9847 9850 9852 9854 9857 9859 9860 9863 9866 9869 9872 9875 9878 9880 9883 9887 9891 9895 9898 9900 9902 9903 9905 9907 9910 9914 9917 9920 9923
9815 9815 9814 9813 9813 9812 9812 9812 9812 9812 9812 9813 9813 9814 9814 9815 9816 9816 9817 9818 9819 9820 9821 9823 9824 9825 9827 9828 9830 9832 9833 9835 9837 9839 9842 9844 9847 9849 9851 9853 9855 9857 9859 9862 9865 9868 9871 9874 9876 9879 9881 9884 9887 9889 9891 9894 9896 9899 9903 9906 9909 9912 9915
9813 9813 9812 9811 9811 9811 9810 9810 9810 9810 9810 9811 9811 9811 9812 9812 9813 9814 9815 9815 9817 9818 9819 9820 9821 9823 9824 9825 9826 9828 9829 9831 9833 9835 9837 9839 9841 9843 9845 9847 9849 9851 9854 9856 9858 9861 9864 9867 9869 9871 9873 9876 9878 9881 9884 9887 9890 9892 9895 9898 9902 9904 9906
9812 9811 9810 9810 9809 9809 9809 9809 9809 9809 9809 9809 9809 9810 9810 9810 9811 9812 9812 9813 9814 9815 9816 9817 9818 9820 9821 9822 9824 9825 9826 9828 9829 9831 9833 9834 9836 9838 9840 9842 9844 9846 9848 9851 9853 9855 9858 9860 9863 9866 9868 9870 9873 9876 9878 9881 9883 9886 9889 9892 9894 9895 9896
9811 9810 9809 9809 9808 9808 9808 9807 9807 9807 9807 9807 9807 9808 9808 9808 9809 9809 9810 9811 9811 9812 9813 9814 9815 9817 9818 9819 9821 9822 9824 9825 9827 9828 9829 9831 9832 9834 9835 9837 9839 9841 9843 9845 9847 9849 9852 9854 9857 9860 9862 9865 9867 9870 9872 9875 9877 9879 9882 9883 9885 9887 9888
9811 9810 9809 9808 9808 9807 9807 9807 9807 9806 9806 9806 9806 9806 9806 9806 9807 9807 9808 9808 9809 9810 9810 9811 9812 9814 9815 9816 9818 9819 9820 9822 9823 9825 9826 9827 9829 9830 9831 9833 9835 9836 9838 9840 9842 9844 9846 9849 9851 9854 9856 9858 9861 9863 9866 9868 9870 9872 9874 9875 9877 9879 9880
9811 9810 9809 9808 9808 9807 9807 9807 9806 9806 9806 9806 9806 9805 9805 9805 9805 9806 9806 9807 9807 9808 9808 9809 9810 9811 9812 9813 9814 9815 9817 9818 9820 9821 9823 9824 9825 9827 9828 9830 9831 9832 9834 9836 9838 9840 9842 9844 9846 9848 9850 9853 9855 9857 9859 9861 9863 9865 9867 9869 9870 9872 9873
9811 9810 9809 9809 9808 9807 9807 9806 9806 9806 9806 9806 9805 9805 9805 9805 9805 9805 9805 9806 9806 9806 9807 9808 9808 9809 9810 9811 9812 9813 9814 9815 9817 9818 9820 9821 9822 9824 9825 9826 9828 9829 9831 9832 9834 9836 9838 9840 9842 9844 9846 9848 9850 9852 9854 9856 9858 9859 9861 9863 9864 9866 9867
9812 9811 9810 9809 9809 9808 9807 9807 9806 9806 9806 9805 9805 9805 9805 9805 9805 9805 9805 9805 9805 9806 9806 9807 9808 9808 9809 9809 9810 9811 9812 9813 9814 9816 9817 9818 9819 9821 9822 9823 9825 9826 9827 9829 9831 9833 9835 9837 9839 9840 9842 9844 9846 9848 9850 9851 9853 9854 9856 9857 9858 9859 9860
9814 9812 9811 9810 9810 9809 9808 9808 9807 9806 9806 9805 9805 9805 9805 9805 9804 9804 9804 9804 9804 9805 9805 9806 9807 9807 9808 9808 9809 9810 9811 9812 9812 9813 9815 9816 9817 9818 9819 9820 9822 9823 9824 9826 9827 9829 9831 9832 9834 9836 9837 9839 9841 9842 9844 9845 9846 9848 9849 9850 9851 9852 9852